[[{"header":{"parameterUnit":"m.s-1","parameterCategory":1,"la1":30.2991,"la2":30.254,"lo1":-89.0895,"lo2":-89.0444,"dy":0.0017,"dx":0.0017,"nx":28,"ny":28,"refTime":"2025-07-11T09:00:00:Z","depth":0,"parameterNumber":2,"parameterNumberName":"U-component_of_WINDS"},"data":[0,0,0,0,0,0,0,0,0,0,0,0,0,0,0,0,0,0,0,0,0,0,0,0,0,0,0,0,0,0,0,0,0,0,0,0,0,0,0,0,0,0,0,0,0,0,0,0,0,0,0,0,0,0,0,0,0,0,2.9379,2.938,0,2.9441,2.9442,2.9442,2.9396,2.9394,2.9392,2.939,2.9452,2.9455,2.9459,0,0,0,0,0,0,0,0,0,0,0,0,0,2.9217,2.922,2.9379,2.938,2.9381,2.9441,2.9442,2.9443,2.9396,2.9393,2.9391,2.9389,2.945,2.9455,2.9459,0,0,0,0,0,0,0,0,0,0,0,0,0,2.9284,2.9221,2.9379,2.9365,2.9364,2.9441,2.9442,2.9443,2.9396,2.9393,2.939,2.9388,2.9449,2.9454,2.9459,2.9553,0,0,2.9476,2.9478,0,0,0,0,0,0,0,0,2.928,2.929,2.9366,2.9366,2.9365,2.9407,2.9407,2.948,2.9397,2.9384,2.939,2.9386,2.9439,2.9445,2.9463,2.9556,2.9559,2.9476,2.9479,2.9482,2.9483,0,0,0,0,0,0,0,2.9276,2.9287,2.9403,2.9367,2.9367,2.9354,2.936,2.9421,2.9428,2.9385,2.9382,2.939,2.9438,2.9458,2.9465,2.956,2.9476,2.9481,2.9484,2.9486,2.9728,2.9731,0,0,0,0,0,0,2.9273,2.9284,2.9401,2.9405,2.9314,2.9359,2.9366,2.9397,2.9427,2.9429,2.9392,2.9387,2.9451,2.9458,2.9467,2.9575,2.9482,2.9487,2.949,2.9725,2.9729,2.9732,0,0,0,0,0,0,2.927,2.9284,2.9399,2.9344,2.9357,2.9365,2.94,2.94,2.942,2.9433,2.9433,2.9412,2.9449,2.9459,2.9531,2.9577,2.9489,2.9494,2.9721,2.9726,2.9731,2.9795,0,0,0,0,0,0,2.9265,2.9283,2.9319,2.9345,2.936,2.9464,2.9403,2.9403,2.9429,2.9423,2.9451,2.9453,2.9447,2.9523,2.9536,2.9582,2.9498,2.9717,2.9723,2.9729,2.9789,2.9801,2.9812,0,0,0,0,0,2.926,2.9336,2.9322,2.9336,2.9406,2.9466,2.9475,2.9468,2.9433,2.9469,2.9477,2.9452,2.957,2.9531,2.9545,2.9594,2.9714,2.9721,2.9729,2.9783,2.9799,2.9812,0,0,0,0,0,0,2.9315,2.9339,2.9323,2.941,2.9437,2.9458,2.9503,2.9485,2.9521,2.9514,2.9503,2.951,2.9585,2.9597,2.9553,2.9684,2.9636,2.9647,2.9673,2.9688,2.9699,2.9694,2.9502,0,0,0,0,0,2.9338,2.9385,2.9403,2.9478,2.9492,2.9496,2.9522,2.9513,2.954,2.9551,2.9564,2.9591,2.9633,2.9662,2.9702,2.9791,2.9794,2.9831,2.9843,2.9852,2.986,2.9905,2.992,2.9756,2.9756,2.9756,0,0,2.9385,2.9403,2.9434,2.9489,2.9509,2.9557,2.9505,2.9559,2.9594,2.9559,2.9627,2.9638,2.9666,2.9746,2.9782,2.9758,2.9907,2.9861,2.9869,2.9872,2.9914,2.9929,2.9943,2.9761,2.976,2.976,0,0,2.9493,2.9514,2.9576,2.9597,2.9627,2.9629,2.9644,2.9668,2.9674,2.9742,2.9716,2.9757,2.9832,2.9852,2.9872,2.9987,2.9964,3.0001,3.0061,3.0104,3.0117,3.0128,3.0166,3.018,3.001,3.001,3.001,0,2.9547,2.9619,2.9611,2.9666,2.9689,2.9661,2.9722,2.9743,2.9784,2.9801,2.9774,2.9865,2.9883,2.9965,2.9993,3.0012,3.0026,2.9996,3.0116,3.0127,3.0138,3.0173,3.0188,3.0014,3.0013,3.0013,3.0012,0,2.9682,2.9732,2.9779,2.9819,2.9849,2.9907,2.9906,2.9937,2.9926,2.993,2.9999,3.0018,3.0061,3.008,3.0071,3.0161,3.0145,3.0118,3.0069,3.0157,3.019,3.0204,3.0019,3.0018,3.0017,3.0016,0,0,2.9827,2.9861,2.9878,2.9895,2.9925,2.9963,3.0019,3.006,3.0085,3.0115,3.016,3.0223,3.0197,3.022,3.0213,3.0251,3.0336,3.0219,3.0219,3.0237,3.0433,3.045,3.0467,3.0323,3.0325,3.0327,3.0429,0,2.9935,3.0032,3.0026,3.0117,3.0161,3.0134,3.0182,3.0205,3.021,3.0248,3.0253,3.0297,3.0262,3.0275,3.0312,3.0318,3.0375,3.0311,3.0361,3.0363,3.0352,3.0484,3.0504,3.0599,3.0442,3.0445,3.0446,0,3.0073,3.0106,3.0202,3.0223,3.0241,3.0285,3.032,3.0358,3.0383,3.0383,3.0408,3.0394,3.0448,3.04,3.0474,3.043,3.0451,3.0457,3.046,3.0462,3.0408,3.0487,3.063,3.0643,3.0467,3.0465,3.0464,0,3.0165,3.0234,3.0299,3.0315,3.0342,3.0372,3.0385,3.0407,3.0431,3.0463,3.0478,3.0516,3.0535,3.0564,3.0559,3.0525,3.0633,3.0585,3.0633,3.0633,3.0654,3.0652,3.0799,3.0673,3.0673,3.0673,3.0672,0,3.0284,3.0342,3.034,3.038,3.0444,3.0435,3.0499,3.0508,3.0527,3.0567,3.0546,3.0584,3.0577,3.0614,3.0611,3.067,3.068,3.068,3.0678,3.068,3.068,3.0691,3.0683,3.0676,3.0676,3.0675,3.0674,0,3.0396,3.0397,3.0466,3.0485,3.0492,3.0538,3.0554,3.059,3.0594,3.0644,3.0655,3.066,3.0702,3.0701,3.075,3.0747,3.0819,3.0811,3.081,3.0807,3.0853,3.0848,3.101,3.103,3.0894,3.0895,3.0897,0,3.047,3.0514,3.0538,3.0563,3.0578,3.0619,3.0643,3.0636,3.0662,3.0692,3.0725,3.0765,3.0797,3.0865,3.0872,3.0909,3.0899,3.0954,3.0904,3.0904,3.0896,3.0892,3.0894,3.0962,3.0964,3.0965,3.0966,0,3.06,3.0598,3.0634,3.067,3.07,3.0728,3.0753,3.0775,3.077,3.08,3.0843,3.0868,3.0916,3.0955,3.099,3.1001,3.0982,3.0982,3.0994,3.0995,3.0991,3.099,3.0833,3.0977,3.0976,3.0975,3.0975,3.0974,3.0694,3.073,3.0752,3.0792,3.081,3.0834,3.0868,3.0876,3.0911,3.095,3.0944,3.0991,3.1012,3.1056,3.1071,3.1107,3.1087,3.1106,3.111,3.1114,3.1117,3.0988,3.1113,3.1113,3.1113,3.1112,3.1112,0,3.082,3.0832,3.0869,3.0905,3.0935,3.0916,3.0943,3.0969,3.1011,3.1033,3.1064,3.1111,3.1149,3.1159,3.1195,3.1221,3.1213,3.123,3.1226,3.1229,3.1134,3.1118,3.1236,3.1236,3.1236,3.1236,3.1236,3.1236,3.0889,3.0948,3.0949,3.1016,3.1028,3.1074,3.109,3.1111,3.1128,3.1182,3.1213,3.122,3.1236,3.1272,3.1305,3.1307,3.1319,3.134,3.1337,3.1248,3.1236,3.1224,3.1209,3.1343,3.1343,3.1428,3.1429,3.143]},{"header":{"parameterUnit":"m.s-1","parameterCategory":1,"la1":30.2991,"la2":30.254,"lo1":-89.0895,"lo2":-89.0444,"dy":0.0017,"dx":0.0017,"nx":28,"ny":28,"refTime":"2025-07-11T09:00:00:Z","depth":0,"parameterNumber":3,"parameterNumberName":"V-component_of_WINDS"},"data":[0,0,0,0,0,0,0,0,0,0,0,0,0,0,0,0,0,0,0,0,0,0,0,0,0,0,0,0,0,0,0,0,0,0,0,0,0,0,0,0,0,0,0,0,0,0,0,0,0,0,0,0,0,0,0,0,0,0,0.218,0.2181,0,0.2253,0.2253,0.2254,0.2262,0.2261,0.226,0.226,0.2338,0.234,0.2343,0,0,0,0,0,0,0,0,0,0,0,0,0,0.2051,0.2054,0.218,0.2181,0.2182,0.2252,0.2253,0.2254,0.2262,0.2261,0.226,0.2259,0.2337,0.234,0.2343,0,0,0,0,0,0,0,0,0,0,0,0,0,0.2114,0.2055,0.218,0.2194,0.2196,0.2252,0.2253,0.2255,0.2262,0.2261,0.226,0.2259,0.2336,0.234,0.2344,0.2392,0,0,0.2357,0.2358,0,0,0,0,0,0,0,0,0.211,0.2119,0.2191,0.2193,0.2196,0.2247,0.2237,0.2301,0.2263,0.2237,0.226,0.2258,0.2309,0.2315,0.2331,0.2396,0.2399,0.2357,0.2359,0.2361,0.2362,0,0,0,0,0,0,0,0.2106,0.2116,0.2209,0.2192,0.2195,0.2198,0.2205,0.2249,0.2279,0.2239,0.224,0.2248,0.231,0.2327,0.2333,0.24,0.2357,0.236,0.2363,0.2365,0.2507,0.2508,0,0,0,0,0,0,0.2099,0.2112,0.2207,0.2211,0.2149,0.2201,0.221,0.2232,0.2278,0.2284,0.2249,0.2248,0.2321,0.2328,0.2336,0.2395,0.2361,0.2365,0.2367,0.2505,0.2507,0.2508,0,0,0,0,0,0,0.2096,0.2107,0.2204,0.2162,0.2174,0.2204,0.2229,0.2234,0.2251,0.2285,0.2291,0.2261,0.232,0.233,0.2377,0.2397,0.2367,0.2371,0.2504,0.2506,0.2507,0.2513,0,0,0,0,0,0,0.2092,0.2106,0.2124,0.2162,0.2176,0.2243,0.223,0.2236,0.2258,0.2257,0.2298,0.2304,0.232,0.2371,0.2381,0.2403,0.2374,0.2502,0.2505,0.2507,0.2511,0.2515,0.2518,0,0,0,0,0,0.2088,0.2124,0.2125,0.2136,0.2199,0.2244,0.2253,0.2269,0.2259,0.2278,0.23,0.2303,0.2393,0.2376,0.2388,0.241,0.2501,0.2504,0.2507,0.251,0.2514,0.2518,0,0,0,0,0,0,0.2089,0.2129,0.2131,0.218,0.2209,0.2246,0.227,0.2274,0.2307,0.2305,0.2325,0.2334,0.2381,0.24,0.238,0.2459,0.2446,0.2452,0.2444,0.2449,0.2452,0.2447,0.2377,0,0,0,0,0,0.2095,0.2127,0.2161,0.2201,0.2215,0.224,0.226,0.227,0.2301,0.2313,0.2339,0.237,0.2405,0.2428,0.2462,0.2514,0.2523,0.2535,0.2538,0.2541,0.2546,0.2574,0.2579,0.2518,0.2518,0.2518,0,0,0.2108,0.2134,0.2153,0.2202,0.2225,0.2259,0.225,0.2286,0.2312,0.2319,0.2365,0.2385,0.2421,0.247,0.2493,0.2488,0.2564,0.2545,0.2546,0.255,0.2577,0.2583,0.2588,0.252,0.2519,0.2519,0,0,0.2149,0.2171,0.2207,0.223,0.2264,0.228,0.2289,0.2325,0.2338,0.2384,0.239,0.2421,0.2481,0.2506,0.2527,0.2575,0.2579,0.2585,0.2604,0.2631,0.2636,0.264,0.2657,0.2663,0.259,0.259,0.259,0,0.2161,0.2211,0.2225,0.2261,0.2282,0.2288,0.2325,0.2347,0.2392,0.2407,0.24,0.2475,0.2499,0.2554,0.2566,0.2582,0.2593,0.2581,0.2633,0.2638,0.2643,0.2659,0.2666,0.259,0.259,0.259,0.259,0,0.2224,0.2259,0.2283,0.2324,0.2348,0.2384,0.2405,0.2427,0.2435,0.2452,0.2498,0.2527,0.2567,0.2581,0.2589,0.2637,0.2632,0.2629,0.2617,0.2649,0.2665,0.2671,0.2591,0.2591,0.2591,0.2591,0,0,0.227,0.2316,0.2325,0.2344,0.2381,0.2409,0.2445,0.2482,0.2501,0.2532,0.2563,0.2613,0.2609,0.2633,0.2644,0.2667,0.2703,0.2661,0.2662,0.2668,0.2758,0.276,0.2767,0.2705,0.2707,0.2708,0.2755,0,0.2315,0.2378,0.2391,0.2446,0.2478,0.2484,0.2515,0.2542,0.2558,0.2589,0.2607,0.2642,0.2635,0.2649,0.2673,0.2694,0.2722,0.2691,0.2736,0.2737,0.2727,0.2776,0.2779,0.2821,0.2761,0.2762,0.2763,0,0.2377,0.2406,0.2464,0.2496,0.251,0.2538,0.2573,0.2601,0.2632,0.2642,0.2667,0.2675,0.2713,0.2698,0.2751,0.273,0.2749,0.2762,0.2764,0.2769,0.2752,0.2783,0.2836,0.2842,0.2773,0.2772,0.2771,0,0.2404,0.2458,0.25,0.2515,0.2554,0.2573,0.259,0.262,0.2641,0.2672,0.2686,0.2721,0.2741,0.2768,0.2786,0.2773,0.2837,0.2824,0.2848,0.2847,0.2862,0.2861,0.2919,0.2873,0.2873,0.2873,0.2873,0,0.2454,0.2489,0.2512,0.2538,0.2577,0.2592,0.2631,0.2648,0.2674,0.2703,0.2711,0.2738,0.2759,0.279,0.2804,0.2846,0.2855,0.2865,0.2868,0.2864,0.2863,0.2878,0.2875,0.2875,0.2874,0.2874,0.2874,0,0.2491,0.2508,0.2554,0.2586,0.2594,0.2622,0.265,0.2675,0.2691,0.2728,0.2738,0.2763,0.2799,0.2819,0.2865,0.2874,0.2921,0.2923,0.2911,0.2912,0.2935,0.2932,0.3005,0.3015,0.2962,0.2962,0.2963,0,0.2522,0.2549,0.2583,0.2602,0.2619,0.2651,0.2672,0.2688,0.271,0.2745,0.2766,0.2803,0.2833,0.2891,0.2914,0.2949,0.2952,0.2975,0.2957,0.2952,0.2953,0.2951,0.2954,0.2978,0.2979,0.2979,0.2979,0,0.2575,0.2581,0.2611,0.2643,0.2668,0.2694,0.2721,0.2737,0.2756,0.2781,0.2817,0.284,0.2886,0.2922,0.2959,0.2978,0.2982,0.2984,0.2992,0.2988,0.298,0.2985,0.2919,0.2983,0.2983,0.2982,0.2982,0.2982,0.261,0.2634,0.2661,0.2694,0.2714,0.2739,0.2763,0.2781,0.2811,0.2849,0.2857,0.2895,0.2924,0.2974,0.2993,0.3024,0.302,0.303,0.3033,0.3036,0.3037,0.2974,0.3031,0.3031,0.3031,0.3031,0.3031,0,0.2663,0.268,0.271,0.2746,0.2771,0.2771,0.28,0.2822,0.2855,0.2881,0.291,0.2951,0.2986,0.3011,0.3046,0.3066,0.3069,0.3075,0.3074,0.3079,0.3039,0.3029,0.3072,0.3072,0.3072,0.3072,0.3072,0.3072,0.2694,0.2734,0.2743,0.2794,0.2811,0.2848,0.2864,0.2886,0.2907,0.2953,0.2981,0.2996,0.3022,0.3059,0.3091,0.3098,0.3111,0.3117,0.3124,0.3086,0.3082,0.3077,0.3068,0.3119,0.3119,0.3161,0.3161,0.3162]}]]